• In Hungary
  • List of Countries
  • For 7 days
  • Water Temperature
  • Satellite Maps
  • Weather Map
  • News
  • Weather Widgets
  • user-avatar
    Login

    Hourly Weather Guvlig

    Today, 26 September, Wednesday

    Time Temperature Precipitation Wind Pressure Humidity
    00:00 +16°C° 0 mm 1 mps 661 mmHg 75%
    01:00 +16°C° 0 mm 2 mps 661 mmHg 77%
    02:00 +16°C° 0 mm 2 mps 661 mmHg 79%
    03:00 +16°C° 0 mm 3 mps 661 mmHg 78%
    04:00 +16°C° 0 mm 3 mps 662 mmHg 82%
    05:00 +15°C° 0 mm 2 mps 662 mmHg 86%
    06:00 +15°C° 0 mm 2 mps 662 mmHg 90%
    07:00 +16°C° 0.1 mm 3 mps 663 mmHg 86%
    08:00 +17°C° 0.1 mm 4 mps 663 mmHg 81%
    09:00 +17°C° 0 mm 4 mps 664 mmHg 76%
    10:00 +17°C° 0.1 mm 4 mps 664 mmHg 76%
    11:00 +16°C° 0.1 mm 5 mps 664 mmHg 75%
    12:00 +16°C° 0.1 mm 5 mps 664 mmHg 74%
    13:00 +15°C° 0.1 mm 5 mps 664 mmHg 75%
    14:00 +15°C° 0.1 mm 5 mps 664 mmHg 76%
    15:00 +14°C° 0.1 mm 5 mps 665 mmHg 77%
    16:00 +13°C° 0.1 mm 4 mps 665 mmHg 81%
    17:00 +12°C° 0.1 mm 4 mps 665 mmHg 85%
    18:00 +11°C° 0.1 mm 4 mps 665 mmHg 89%
    19:00 +11°C° 0.1 mm 3 mps 665 mmHg 89%
    20:00 +11°C° 0.1 mm 3 mps 665 mmHg 89%
    21:00 +11°C° 0.1 mm 3 mps 666 mmHg 89%
    22:00 +10°C° 0 mm 3 mps 666 mmHg 89%
    23:00 +10°C° 0 mm 3 mps 666 mmHg 90%

    Tomorrow, 27 September, Thursday

    Time Temperature Precipitation Wind Pressure Humidity
    00:00 +10°C° 0 mm 3 mps 666 mmHg 90%
    01:00 +10°C° 0 mm 2 mps 666 mmHg 90%
    02:00 +10°C° 0 mm 2 mps 666 mmHg 91%
    03:00 +9°C° 0 mm 2 mps 666 mmHg 91%
    04:00 +9°C° 0 mm 2 mps 666 mmHg 91%
    05:00 +9°C° 0 mm 2 mps 666 mmHg 90%
    06:00 +9°C° 0 mm 2 mps 666 mmHg 90%
    07:00 +10°C° 0 mm 3 mps 666 mmHg 85%
    08:00 +11°C° 0 mm 3 mps 667 mmHg 80%
    09:00 +13°C° 0 mm 3 mps 667 mmHg 74%
    10:00 +13°C° 0 mm 3 mps 667 mmHg 74%
    11:00 +13°C° 0 mm 3 mps 667 mmHg 73%
    12:00 +13°C° 0 mm 3 mps 667 mmHg 73%
    13:00 +13°C° 0 mm 3 mps 667 mmHg 74%
    14:00 +13°C° 0 mm 3 mps 667 mmHg 75%
    15:00 +13°C° 0 mm 3 mps 667 mmHg 76%
    16:00 +13°C° 0 mm 2 mps 667 mmHg 81%
    17:00 +12°C° 0 mm 2 mps 666 mmHg 85%
    18:00 +12°C° 0 mm 1 mps 666 mmHg 90%
    19:00 +11°C° 0 mm 1 mps 666 mmHg 90%
    20:00 +11°C° 0 mm 1 mps 666 mmHg 90%
    21:00 +11°C° 0 mm 1 mps 667 mmHg 89%
    22:00 +11°C° 0 mm 1 mps 666 mmHg 88%
    23:00 +11°C° 0 mm 1 mps 666 mmHg 86%

    Day after tomorrow, 28 September, Friday

    Time Temperature Precipitation Wind Pressure Humidity
    00:00 +11°C° 0 mm 1 mps 666 mmHg 84%
    01:00 +10°C° 0 mm 1 mps 666 mmHg 83%
    02:00 +10°C° 0 mm 1 mps 666 mmHg 82%
    03:00 +10°C° 0 mm 1 mps 666 mmHg 81%
    04:00 +10°C° 0 mm 1 mps 666 mmHg 79%
    05:00 +10°C° 0 mm 1 mps 666 mmHg 78%
    06:00 +10°C° 0 mm 1 mps 666 mmHg 76%
    07:00 +12°C° 0 mm 1 mps 667 mmHg 71%
    08:00 +14°C° 0 mm 2 mps 667 mmHg 66%
    09:00 +16°C° 0 mm 2 mps 668 mmHg 61%
    10:00 +17°C° 0 mm 2 mps 668 mmHg 61%
    11:00 +17°C° 0 mm 3 mps 668 mmHg 61%
    12:00 +18°C° 0 mm 3 mps 668 mmHg 61%
    13:00 +18°C° 0 mm 3 mps 668 mmHg 64%
    14:00 +17°C° 0 mm 3 mps 667 mmHg 66%
    15:00 +17°C° 0 mm 3 mps 667 mmHg 69%
    16:00 +16°C° 0 mm 3 mps 666 mmHg 75%
    17:00 +14°C° 0 mm 3 mps 666 mmHg 81%
    18:00 +13°C° 0 mm 3 mps 666 mmHg 87%
    19:00 +12°C° 0 mm 3 mps 666 mmHg 85%
    20:00 +12°C° 0 mm 3 mps 665 mmHg 83%
    21:00 +12°C° 0 mm 3 mps 665 mmHg 81%
    22:00 +11°C° 0 mm 3 mps 665 mmHg 79%
    23:00 +11°C° 0 mm 3 mps 665 mmHg 76%

    29 September, Saturday

    Time Temperature Precipitation Wind Pressure Humidity
    00:00 +11°C° 0 mm 3 mps 664 mmHg 74%
    01:00 +11°C° 0 mm 3 mps 664 mmHg 72%
    02:00 +11°C° 0 mm 3 mps 663 mmHg 71%
    03:00 +11°C° 0 mm 3 mps 663 mmHg 69%
    04:00 +12°C° 0 mm 2 mps 663 mmHg 66%
    05:00 +12°C° 0 mm 2 mps 663 mmHg 64%
    06:00 +12°C° 0 mm 2 mps 663 mmHg 62%
    07:00 +15°C° 0 mm 2 mps 663 mmHg 56%
    08:00 +17°C° 0 mm 2 mps 663 mmHg 50%
    09:00 +21°C° 0 mm 1 mps 664 mmHg 44%
    10:00 +20°C° 0 mm 2 mps 664 mmHg 44%
    11:00 +21°C° 0 mm 2 mps 663 mmHg 44%
    12:00 +23°C° 0 mm 2 mps 663 mmHg 44%
    13:00 +23°C° 0 mm 2 mps 663 mmHg 47%
    14:00 +23°C° 0 mm 2 mps 663 mmHg 49%
    15:00 +21°C° 0 mm 2 mps 662 mmHg 52%
    16:00 +20°C° 0 mm 2 mps 662 mmHg 61%
    17:00 +19°C° 0 mm 1 mps 662 mmHg 70%
    18:00 +16°C° 0 mm 1 mps 661 mmHg 80%
    19:00 +16°C° 0 mm 1 mps 661 mmHg 76%
    20:00 +16°C° 0 mm 1 mps 661 mmHg 73%
    21:00 +16°C° 0 mm 1 mps 662 mmHg 70%
    22:00 +15°C° 0 mm 1 mps 661 mmHg 67%
    23:00 +15°C° 0 mm 1 mps 661 mmHg 64%

    30 September, Sunday

    Time Temperature Precipitation Wind Pressure Humidity
    00:00 +15°C° 0 mm 1 mps 661 mmHg 61%
    01:00 +15°C° 0 mm 1 mps 661 mmHg 57%
    02:00 +15°C° 0 mm 2 mps 661 mmHg 53%
    03:00 +15°C° 0 mm 2 mps 661 mmHg 49%
    04:00 +15°C° 0 mm 2 mps 661 mmHg 47%
    05:00 +15°C° 0 mm 1 mps 661 mmHg 45%
    06:00 +15°C° 0 mm 1 mps 661 mmHg 43%
    07:00 +18°C° 0 mm 1 mps 662 mmHg 41%
    08:00 +21°C° 0 mm 1 mps 662 mmHg 39%
    09:00 +23°C° 0 mm 1 mps 663 mmHg 37%
    10:00 +24°C° 0 mm 2 mps 663 mmHg 39%
    11:00 +24°C° 0 mm 2 mps 662 mmHg 40%
    12:00 +25°C° 0 mm 2 mps 662 mmHg 41%
    13:00 +24°C° 0.1 mm 2 mps 662 mmHg 45%
    14:00 +24°C° 0.1 mm 2 mps 662 mmHg 48%
    15:00 +23°C° 0.1 mm 2 mps 662 mmHg 52%
    16:00 +20°C° 0.1 mm 2 mps 662 mmHg 62%
    17:00 +19°C° 0.1 mm 1 mps 662 mmHg 72%
    18:00 +15°C° 0.1 mm 0 mps 662 mmHg 82%
    19:00 +15°C° 0.1 mm 0 mps 662 mmHg 81%
    20:00 +16°C° 0.1 mm 1 mps 662 mmHg 81%
    21:00 +16°C° 0.1 mm 1 mps 663 mmHg 80%
    22:00 +16°C° 0 mm 1 mps 663 mmHg 80%
    23:00 +15°C° 0 mm 1 mps 663 mmHg 80%

    1 October, Monday

    Time Temperature Precipitation Wind Pressure Humidity
    00:00 +15°C° 0 mm 1 mps 663 mmHg 79%
    01:00 +15°C° 0 mm 1 mps 663 mmHg 79%
    02:00 +15°C° 0 mm 1 mps 663 mmHg 78%
    03:00 +15°C° 0 mm 1 mps 663 mmHg 77%
    04:00 +14°C° 0 mm 1 mps 663 mmHg 77%
    05:00 +14°C° 0 mm 1 mps 663 mmHg 78%
    06:00 +14°C° 0 mm 1 mps 663 mmHg 78%
    07:00 +16°C° 0 mm 2 mps 664 mmHg 72%
    08:00 +18°C° 0 mm 2 mps 665 mmHg 66%
    09:00 +19°C° 0 mm 2 mps 665 mmHg 59%
    10:00 +20°C° 0 mm 2 mps 665 mmHg 59%
    11:00 +21°C° 0 mm 3 mps 665 mmHg 59%
    12:00 +21°C° 0 mm 3 mps 665 mmHg 59%
    13:00 +21°C° 0.1 mm 3 mps 665 mmHg 63%
    14:00 +20°C° 0.1 mm 3 mps 665 mmHg 67%
    15:00 +20°C° 0.1 mm 2 mps 664 mmHg 71%
    16:00 +18°C° 0 mm 2 mps 664 mmHg 76%
    17:00 +17°C° 0 mm 2 mps 664 mmHg 82%
    18:00 +16°C° 0 mm 2 mps 664 mmHg 88%
    19:00 +16°C° 0 mm 1 mps 664 mmHg 84%
    20:00 +15°C° 0 mm 1 mps 664 mmHg 81%
    21:00 +15°C° 0 mm 1 mps 664 mmHg 78%
    22:00 +15°C° 0 mm 2 mps 664 mmHg 74%
    23:00 +15°C° 0 mm 2 mps 664 mmHg 69%
    Show more